N7MLR Weather Reports


Display with metric or nautical units.
time (UTC)temp
F
wind
direction
speed
MPH
gust
MPH
rain 1hr
in
rain 24hr
in
rain mn
in
humidity
%
barometer
mb
20260506173333 78 202 4.0 5.0 0.00 0.00 0.00 76 1010.9
20260506172830 77 200 1.0 1.0 0.00 0.00 0.00 78 1011.2
20260506172327 76 193 1.0 1.0 0.00 0.00 0.00 79 1011.2
20260506171825 74 221 4.0 5.0 0.00 0.00 0.00 80 1011.3
20260506171321 74 195 1.0 2.0 0.00 0.00 0.00 82 1011.2
20260506170819 73 233 1.0 2.0 0.00 0.00 0.00 83 1011.3
20260506170315 72 208 1.0 1.0 0.00 0.00 0.00 84 1011.4
20260506165814 72 206 2.0 2.0 0.00 0.00 0.00 84 1011.4
20260506165311 71 194 3.0 5.0 0.00 0.00 0.00 85 1011.3
20260506164807 71 204 3.0 3.0 0.00 0.00 0.00 85 1011.5
20260506164304 71 213 5.0 8.0 0.00 0.00 0.00 85 1011.3
20260506163801 71 191 3.0 5.0 0.00 0.00 0.00 85 1011.3
20260506163256 71 175 3.0 5.0 0.00 0.00 0.00 86 1011.3
20260506162752 73 216 6.0 7.0 0.00 0.00 0.00 85 1011.4
20260506162250 77 196 2.0 3.0 0.00 0.00 0.00 86 1011.3
20260506161747 78 223 2.0 2.0 0.00 0.00 0.00 85 1011.1
20260506161245 78 217 3.0 5.0 0.00 0.00 0.00 85 1011.1
20260506160742 78 209 2.0 2.0 0.00 0.00 0.00 85 1011.2
20260506160238 78 189 0.0 1.0 0.00 0.00 0.00 85 1011.1
20260506155737 78 213 1.0 1.0 0.00 0.00 0.00 85 1011.2
20260506155233 77 198 1.0 1.0 0.00 0.00 0.00 86 1011.2
20260506153341 77 240 0.0 0.0 0.00 0.00 0.00 88 1011.2
20260506152838 77 241 0.0 0.0 0.00 0.00 0.00 89 1011.1
20260506152335 76 241 0.0 0.0 0.00 0.00 0.00 89 1010.6
20260506151834 76 241 1.0 1.0 0.00 0.00 0.00 89 1010.5
20260506151330 77 241 0.0 1.0 0.00 0.00 0.00 89 1010.3
20260506150827 76 242 0.0 0.0 0.00 0.00 0.00 91 1010.6
20260506150324 76 233 0.0 0.0 0.00 0.00 0.00 91 1010.0
20260506145821 76 233 1.0 1.0 0.00 0.00 0.00 91 1010.3
20260506145317 75 235 1.0 1.0 0.00 0.00 0.00 91 1010.3
20260506144815 75 223 0.0 1.0 0.00 0.00 0.00 92 1010.2
20260506144311 75 217 0.0 0.0 0.00 0.00 0.00 92 1010.1
20260506143810 75 217 0.0 1.0 0.00 0.00 0.00 92 1010.0
20260506143306 75 217 1.0 1.0 0.00 0.00 0.00 93 1010.1
20260506142804 75 212 0.0 0.0 0.00 0.00 0.00 93 1010.3
20260506142305 75 212 1.0 1.0 0.00 0.00 0.00 93 1010.3
20260506141800 75 236 0.0 0.0 0.00 0.00 0.00 93 1010.2
20260506141258 74 229 0.0 0.0 0.00 0.00 0.00 94 1010.1
20260506140755 74 227 2.0 2.0 0.00 0.00 0.00 94 1010.1
20260506140252 74 210 1.0 1.0 0.00 0.00 0.00 94 1010.1
20260506135749 74 242 1.0 1.0 0.00 0.00 0.00 94 1009.7
20260506135245 74 268 1.0 3.0 0.00 0.00 0.00 94 1009.8
20260506134742 74 236 0.0 0.0 0.00 0.00 0.00 94 1009.2
20260506134239 74 232 0.0 0.0 0.00 0.00 0.00 94 1009.3
20260506133736 74 230 1.0 1.0 0.00 0.00 0.00 94 1009.1
20260506133232 74 225 0.0 1.0 0.00 0.00 0.00 94 1009.0
20260506132729 74 240 2.0 3.0 0.00 0.00 0.00 94 1008.9
20260506132227 74 238 1.0 1.0 0.00 0.00 0.00 94 1008.9
20260506131725 74 238 0.0 1.0 0.00 0.00 0.00 94 1009.0
20260506131220 74 224 0.0 1.0 0.00 0.00 0.00 94 1008.7
20260506130717 74 234 2.0 2.0 0.00 0.00 0.00 94 1008.9
20260506130214 74 237 0.0 1.0 0.00 0.00 0.00 94 1008.8
20260506125712 74 232 1.0 1.0 0.00 0.00 0.00 93 1008.9
20260506125210 75 237 1.0 2.0 0.00 0.00 0.00 93 1008.6
20260506124708 75 214 0.0 1.0 0.00 0.00 0.00 93 1008.6
20260506124206 74 209 0.0 1.0 0.00 0.00 0.00 94 1008.8
20260506123703 74 209 1.0 1.0 0.00 0.00 0.00 95 1008.5
20260506123202 73 214 0.0 1.0 0.00 0.00 0.00 96 1008.5
20260506122658 73 229 1.0 1.0 0.00 0.00 0.00 96 1008.5
20260506122155 73 226 0.0 1.0 0.00 0.00 0.00 96 1008.8
20260506121653 73 226 1.0 1.0 0.00 0.00 0.00 96 1008.8
20260506121149 73 226 0.0 0.0 0.00 0.00 0.00 96 1008.6
20260506120647 73 226 0.0 0.0 0.00 0.00 0.00 96 1008.6
20260506120144 73 226 0.0 0.0 0.00 0.00 0.00 96 1008.6
20260506115643 73 226 0.0 0.0 0.00 0.00 0.00 96 1008.7
20260506115140 73 226 0.0 0.0 0.00 0.00 0.00 96 1008.6
20260506114637 73 226 0.0 0.0 0.00 0.00 0.00 96 1008.5
20260506114135 73 226 0.0 0.0 0.00 0.00 0.00 96 1008.4
20260506113634 73 226 0.0 0.0 0.00 0.00 0.00 96 1008.5
20260506113130 73 226 0.0 0.0 0.00 0.00 0.00 96 1008.5
20260506112626 73 226 0.0 0.0 0.00 0.00 0.00 96 1008.6
20260506112124 73 226 0.0 0.0 0.00 0.00 0.00 96 1008.6
20260506111622 73 226 0.0 0.0 0.00 0.00 0.00 96 1008.4
20260506111119 73 226 0.0 0.0 0.00 0.00 0.00 96 1008.5
20260506110617 73 226 0.0 0.0 0.00 0.00 0.00 96 1008.3
20260506110114 73 226 0.0 0.0 0.00 0.00 0.00 96 1008.4
20260506105610 73 226 0.0 0.0 0.00 0.00 0.00 96 1008.6
20260506105107 73 226 0.0 0.0 0.00 0.00 0.00 96 1008.5
20260506104606 73 226 0.0 0.0 0.00 0.00 0.00 96 1008.5
20260506104103 73 227 0.0 1.0 0.00 0.00 0.00 96 1008.5
20260506103600 73 226 0.0 0.0 0.00 0.00 0.00 96 1008.4
20260506103056 73 226 1.0 1.0 0.00 0.00 0.00 96 1008.4
20260506102555 73 227 1.0 1.0 0.00 0.00 0.00 96 1008.5
20260506102052 73 227 1.0 1.0 0.00 0.00 0.00 95 1008.3
20260506101548 73 222 1.0 1.0 0.00 0.00 0.00 95 1008.5
20260506101046 74 216 1.0 1.0 0.00 0.00 0.00 94 1008.3
20260506100544 74 202 1.0 1.0 0.00 0.00 0.00 94 1008.5
20260506100042 74 200 1.0 2.0 0.00 0.00 0.00 94 1008.2
20260506095540 74 224 1.0 1.0 0.00 0.00 0.00 93 1008.0
20260506095036 74 202 1.0 1.0 0.00 0.00 0.00 93 1007.9
20260506094534 74 204 0.0 0.0 0.00 0.00 0.00 93 1008.3
20260506094032 74 191 1.0 2.0 0.00 0.00 0.00 93 1008.2
20260506093530 74 180 1.0 1.0 0.00 0.00 0.00 93 1008.2
20260506093027 73 175 2.0 2.0 0.00 0.00 0.00 94 1008.0
20260506092525 73 229 1.0 1.0 0.00 0.00 0.00 94 1008.2
20260506092021 73 211 2.0 2.0 0.00 0.00 0.00 94 1008.0
20260506091520 73 269 3.0 5.0 0.00 0.00 0.00 95 1008.0
20260506091016 73 222 1.0 1.0 0.00 0.00 0.00 95 1008.2
20260506090514 73 182 2.0 2.0 0.00 0.00 0.00 96 1008.0
20260506090010 73 210 1.0 1.0 0.00 0.00 0.00 96 1007.8
20260506085507 73 270 1.0 1.0 0.00 0.00 0.00 96 1007.7
20260506085004 73 221 1.0 2.0 0.00 0.00 0.00 96 1008.2
20260506084501 73 238 3.0 3.0 0.00 0.00 0.00 96 1007.8
20260506083957 73 222 2.0 2.0 0.00 0.00 0.00 96 1007.9
20260506083454 73 224 0.0 0.0 0.00 0.00 0.00 96 1008.2
20260506082951 73 241 1.0 1.0 0.00 0.00 0.00 96 1008.0
20260506082448 73 235 0.0 0.0 0.00 0.00 0.00 95 1008.0
20260506081944 74 272 1.0 1.0 0.00 0.00 0.00 95 1007.7
20260506081443 74 231 0.0 0.0 0.00 0.00 0.00 95 1007.8
20260506080939 74 210 0.0 1.0 0.00 0.00 0.00 94 1007.7
20260506080436 75 244 2.0 3.0 0.00 0.00 0.00 93 1007.7
20260506073420 74 228 0.0 0.0 0.00 0.00 0.00 93 1008.3
20260506072918 74 230 0.0 0.0 0.00 0.00 0.00 93 1008.7
20260506072415 74 200 1.0 1.0 0.00 0.00 0.00 93 1008.3
20260506071912 74 159 3.0 3.0 0.00 0.00 0.00 93 1008.5
20260506071410 74 231 1.0 1.0 0.00 0.00 0.00 93 1008.4
20260506070907 74 89 2.0 5.0 0.00 0.00 0.00 93 1008.4
20260506070404 74 221 2.0 2.0 0.00 0.00 0.00 93 1008.8
20260506062341 75 238 1.0 1.0 0.00 0.00 0.00 93 1008.4
20260506061837 75 221 1.0 1.0 0.00 0.00 0.00 93 1008.5
20260506061333 75 238 1.0 1.0 0.00 0.00 0.00 93 1008.8
20260506060832 75 261 3.0 5.0 0.00 0.00 0.00 92 1008.6
20260506060330 75 77 2.0 2.0 0.00 0.00 0.00 92 1008.5
20260506051301 76 237 1.0 1.0 0.00 0.00 0.00 91 1008.7
20260506050759 76 208 1.0 1.0 0.00 0.00 0.00 90 1008.6
20260506050256 77 234 2.0 2.0 0.00 0.00 0.00 88 1008.5
20260506044747 77 205 1.0 2.0 0.00 0.00 0.00 88 1008.6
20260506044244 77 212 1.0 2.0 0.00 0.00 0.00 88 1008.6
20260506043741 76 217 1.0 2.0 0.00 0.00 0.00 91 1008.6
20260506043239 76 172 1.0 1.0 0.00 0.00 0.00 91 1008.6
20260506042737 76 179 2.0 3.0 0.00 0.00 0.00 91 1008.6
20260506042236 76 251 2.0 2.0 0.00 0.00 0.00 91 1008.4
20260506041734 76 234 0.0 0.0 0.00 0.00 0.00 91 1008.3
20260506041231 76 230 1.0 1.0 0.00 0.00 0.00 91 1008.5
20260506040728 76 250 1.0 1.0 0.00 0.00 0.00 91 1008.3
20260506040225 76 225 1.0 2.0 0.00 0.00 0.00 91 1008.4
20260506035721 76 230 1.0 2.0 0.00 0.00 0.00 91 1008.3
20260506035219 76 241 1.0 1.0 0.00 0.00 0.00 91 1008.4
20260506034715 76 250 1.0 2.0 0.00 0.00 0.00 91 1007.7
20260506034213 76 245 0.0 1.0 0.00 0.00 0.00 91 1008.2
20260506033710 76 232 1.0 1.0 0.00 0.00 0.00 91 1008.2
20260506033206 75 236 0.0 1.0 0.00 0.00 0.00 91 1007.8
20260506032703 75 244 0.0 1.0 0.00 0.00 0.00 91 1008.0
20260506032201 75 243 0.0 1.0 0.00 0.00 0.00 91 1007.9
20260506031657 75 238 0.0 0.0 0.00 0.00 0.00 91 1007.8
20260506031155 75 238 0.0 0.0 0.00 0.00 0.00 90 1007.5
20260506030653 75 239 0.0 0.0 0.00 0.00 0.00 89 1007.5
20260506030149 76 239 1.0 1.0 0.00 0.00 0.00 89 1007.5
20260506025646 76 229 0.0 0.0 0.00 0.00 0.00 87 1007.2
20260506025142 77 222 0.0 0.0 0.00 0.00 0.00 86 1007.2
20260506024640 78 209 0.0 1.0 0.00 0.00 0.00 85 1007.0
20260506024136 78 204 0.0 1.0 0.00 0.00 0.00 84 1007.1
20260506023633 78 207 0.0 1.0 0.00 0.00 0.00 85 1007.0
20260506023130 77 208 0.0 1.0 0.00 0.00 0.00 85 1007.2
20260506022627 75 209 1.0 1.0 0.00 0.00 0.00 89 1007.0
20260506022125 75 210 0.0 0.0 0.00 0.00 0.00 90 1006.9
20260506021622 75 210 0.0 0.0 0.00 0.00 0.00 90 1006.9
20260506021119 75 210 0.0 0.0 0.00 0.00 0.00 89 1006.8
20260506020616 75 210 0.0 0.0 0.00 0.00 0.00 89 1006.6
20260506020114 75 210 0.0 0.0 0.00 0.00 0.00 88 1006.5
20260506015611 76 210 0.0 0.0 0.00 0.00 0.00 88 1006.3
20260506015108 76 210 0.0 0.0 0.00 0.00 0.00 87 1006.5
20260506014606 77 210 0.0 0.0 0.00 0.00 0.00 86 1006.2
20260506014101 77 210 0.0 0.0 0.00 0.00 0.00 86 1006.3
20260506013600 77 210 0.0 0.0 0.00 0.00 0.00 85 1006.1
20260506013056 78 210 0.0 0.0 0.00 0.00 0.00 84 1005.9
20260506012552 78 210 0.0 1.0 0.00 0.00 0.00 83 1006.0
20260506012049 79 210 1.0 1.0 0.00 0.00 0.00 82 1006.1
20260506011547 80 209 0.0 1.0 0.00 0.00 0.00 81 1006.0
20260506011042 80 211 1.0 1.0 0.00 0.00 0.00 80 1006.0
20260506010537 81 216 0.0 1.0 0.00 0.00 0.00 78 1006.1
20260506010033 81 215 0.0 1.0 0.00 0.00 0.00 77 1006.1
20260506005530 82 220 0.0 1.0 0.00 0.00 0.00 76 1006.1
20260506005026 80 234 0.0 0.0 0.00 0.00 0.00 78 1006.1
20260506004523 81 238 0.0 0.0 0.00 0.00 0.00 78 1006.1
20260506004020 81 237 1.0 1.0 0.00 0.00 0.00 78 1005.9
20260506003516 81 226 0.0 0.0 0.00 0.00 0.00 77 1005.9
20260506003012 81 225 0.0 1.0 0.00 0.00 0.00 77 1005.8
20260506002509 82 225 0.0 0.0 0.00 0.00 0.00 76 1005.9
20260506002004 82 225 0.0 0.0 0.00 0.00 0.00 75 1006.1
20260506001501 82 225 0.0 0.0 0.00 0.00 0.00 74 1006.1
20260506000958 83 225 0.0 0.0 0.00 0.00 0.00 73 1006.0
20260506000455 83 216 1.0 1.0 0.00 0.00 0.00 72 1005.9
20260505235952 83 193 1.0 1.0 0.00 0.00 0.00 72 1005.8
20260505235451 84 200 1.0 1.0 0.00 0.00 0.00 70 1005.9
20260505234947 84 192 0.0 1.0 0.00 0.00 0.00 70 1005.9
20260505234445 85 212 1.0 2.0 0.00 0.00 0.00 69 1006.0
20260505233941 85 197 2.0 2.0 0.00 0.00 0.00 68 1005.7
20260505233439 85 224 1.0 1.0 0.00 0.00 0.00 68 1005.7
20260505232936 84 136 3.0 3.0 0.00 0.00 0.00 69 1005.8
20260505232434 83 189 2.0 2.0 0.00 0.00 0.00 71 1005.8
20260505231931 84 174 1.0 2.0 0.00 0.00 0.00 71 1005.9
20260505231428 84 229 1.0 1.0 0.00 0.00 0.00 71 1005.7
20260505230926 84 235 4.0 6.0 0.00 0.00 0.00 71 1005.8
20260505230424 84 221 1.0 2.0 0.00 0.00 0.00 70 1006.0
20260505225920 84 164 3.0 3.0 0.00 0.00 0.00 69 1005.9
20260505225417 84 213 1.0 1.0 0.00 0.00 0.00 70 1005.8
20260505224912 84 188 2.0 2.0 0.00 0.00 0.00 70 1005.7
20260505224410 85 281 2.0 2.0 0.00 0.00 0.00 70 1005.7
20260505223907 85 195 1.0 2.0 0.00 0.00 0.00 68 1005.7
20260505223404 85 191 2.0 2.0 0.00 0.00 0.00 67 1005.5
20260505222900 86 47 2.0 2.0 0.00 0.00 0.00 68 1005.5
20260505222356 85 187 2.0 2.0 0.00 0.00 0.00 67 1005.5
20260505221853 85 140 3.0 3.0 0.00 0.00 0.00 68 1005.8
20260505221350 85 111 3.0 5.0 0.00 0.00 0.00 68 1005.6
20260505220847 83 186 2.0 2.0 0.00 0.00 0.00 71 1005.6
20260505220344 84 112 3.0 3.0 0.00 0.00 0.00 70 1005.9
20260505215842 84 117 2.0 3.0 0.00 0.00 0.00 70 1005.8
20260505215339 84 228 2.0 3.0 0.00 0.00 0.00 70 1005.6
20260505214837 84 228 2.0 2.0 0.00 0.00 0.00 70 1006.0
20260505214335 84 81 3.0 6.0 0.00 0.00 0.00 70 1005.9
20260505213831 84 185 1.0 2.0 0.00 0.00 0.00 69 1005.7
20260505213330 85 285 3.0 3.0 0.00 0.00 0.00 69 1006.1
20260505212825 85 184 2.0 2.0 0.00 0.00 0.00 69 1006.2
20260505212322 86 104 4.0 5.0 0.00 0.00 0.00 66 1006.2
20260505211818 86 78 3.0 5.0 0.00 0.00 0.00 66 1006.2
20260505211316 86 153 1.0 2.0 0.00 0.00 0.00 68 1006.5
20260505210812 86 151 3.0 3.0 0.00 0.00 0.00 67 1006.2
20260505210309 85 237 3.0 7.0 0.00 0.00 0.00 68 1006.4
20260505205806 87 136 3.0 3.0 0.00 0.00 0.00 66 1006.4
20260505205305 85 292 3.0 5.0 0.00 0.00 0.00 68 1006.7
20260505204801 84 171 3.0 3.0 0.00 0.00 0.00 69 1006.7
20260505204259 84 166 3.0 3.0 0.00 0.00 0.00 69 1006.7
20260505203756 83 229 1.0 1.0 0.00 0.00 0.00 72 1006.8
20260505203253 83 182 1.0 1.0 0.00 0.00 0.00 71 1006.9
20260505202749 84 241 1.0 1.0 0.00 0.00 0.00 71 1006.9
20260505202245 83 266 2.0 3.0 0.00 0.00 0.00 71 1006.9
20260505201742 83 197 3.0 3.0 0.00 0.00 0.00 71 1007.2
20260505201239 83 120 1.0 2.0 0.00 0.00 0.00 72 1007.2
20260505200738 83 185 1.0 1.0 0.00 0.00 0.00 73 1007.3
20260505200235 83 202 1.0 2.0 0.00 0.00 0.00 71 1007.3
20260505195729 83 286 2.0 2.0 0.00 0.00 0.00 71 1007.5
20260505195227 83 160 2.0 2.0 0.00 0.00 0.00 72 1007.4
20260505194725 83 292 2.0 3.0 0.00 0.00 0.00 72 1007.6
20260505194221 84 217 0.0 1.0 0.00 0.00 0.00 70 1007.5
20260505193717 82 310 3.0 7.0 0.00 0.00 0.00 72 1007.7
20260505193214 83 215 1.0 1.0 0.00 0.00 0.00 72 1007.5
20260505192713 84 178 2.0 2.0 0.00 0.00 0.00 71 1007.6
20260505192210 82 198 3.0 3.0 0.00 0.00 0.00 73 1007.6
20260505191708 83 194 3.0 3.0 0.00 0.00 0.00 72 1007.6
20260505191206 82 179 1.0 1.0 0.00 0.00 0.00 74 1007.8
20260505190702 81 168 2.0 2.0 0.00 0.00 0.00 75 1007.9
20260505190201 81 133 3.0 3.0 0.00 0.00 0.00 74 1007.7
20260505185659 80 182 2.0 2.0 0.00 0.00 0.00 77 1007.7
20260505185155 81 45 3.0 3.0 0.00 0.00 0.00 76 1007.9
20260505184651 81 93 3.0 3.0 0.00 0.00 0.00 75 1008.0
20260505184148 80 119 3.0 3.0 0.00 0.00 0.00 76 1008.2
20260505183645 80 163 3.0 3.0 0.00 0.00 0.00 76 1008.2
20260505183143 80 82 3.0 3.0 0.00 0.00 0.00 76 1008.5
20260505182639 80 110 2.0 2.0 0.00 0.00 0.00 77 1008.5
20260505182136 79 167 2.0 2.0 0.00 0.00 0.00 78 1008.4
20260505181632 79 174 2.0 3.0 0.00 0.00 0.00 78 1008.5
20260505181130 79 179 2.0 2.0 0.00 0.00 0.00 79 1008.7
20260505180626 78 178 2.0 2.0 0.00 0.00 0.00 79 1008.7
20260505180123 79 132 3.0 3.0 0.00 0.00 0.00 78 1008.3
20260505175619 80 187 2.0 2.0 0.00 0.00 0.00 76 1008.9
20260505175116 78 146 3.0 3.0 0.00 0.00 0.00 79 1009.0
20260505174613 78 108 3.0 3.0 0.00 0.00 0.00 80 1008.8
20260505174109 76 140 3.0 3.0 0.00 0.00 0.00 83 1008.9